DMSP 5D-2 F13 DEB, 42282

Orbit data source: Space-Track

DMSP 5D-2 F13 DEB, 42282 is space debris in SSO originally from a launch on Fri, 24 Mar 1995 UTC launched from the Air Force Western Test Range (AFWTR). Debris objects in space refer to the collection of defunct objects orbiting the Earth. Examples of debris include non-operational satellites, rocket bodies, and fragments generated from explosions, collisions, or faulty payload assembly.

Loading next visibility...
Identifier
42282, 1995-015GY
Orbit
SSO
Country
Flag of USUS
Related business
Manufacturer
Unknown
Mission
Spacecraft
Bus & Motor
Unknown
Mass
Unknown
Launch date (UTC)
1995-03-24 (31 years ago)
Launch vehicle
Unknown
Launch site
Air Force Western Test Range (AFWTR)
Object type
Payload
Rocket body
Debris
Shape & HBR
Unknown shape, 0.1 m
Radar Cross Section
Small (<0.1 m²)

Expand to show TLE details & history
Last TLE update: 1 day ago

TLE from 1 day ago
0 DMSP 5D-2 F13 DEB
1 42282U 95015GY  26071.99949829  .00004453  00000-0  17329-2 0  9993
2 42282  98.9415  90.7941 0030755 226.0149 133.8496 14.30041247561608
Epoch: 2026-03-12T23:59Z
TLE epoch observation values (Epoch: 2026-03-12T23:59:16.652Z)
Latitude
-0.00001°
Longitude
-79.66661°
Altitude
809.828 km
Speed
7.44 km/s
True Right ascension
06h 03m 10s
True Declination
0° 00' 00"
Sunlit
Object was in daylight at epoch
Visualization orbit readout
Latitude
Unknown
Longitude
Unknown
Altitude
Unknown
Speed
Unknown
Apparent Right ascension
Unknown
Apparent Declination
Unknown
Sunlit
N/A
Visualization observer readout
Local Sidereal Time
09:48:57
Azimuth
Unknown
Elevation
Unknown
Doppler factor
Unknown
Orbital elements
Apogee altitude
810.791 km
Perigee altitude
766.708 km
Semi-major axis
7,166.886 km
Eccentricity
0.00308
Inclination
98.9415°
RAAN
90.7941°
Arg. of periapsis
226.0149°
True anomaly
134.10308°
Mean anomaly
133.8496°
Eccentric anomaly
133.97641°
Mean motion
3.57723 °/min
Orbital period
100.64 mins
BSTAR
0.0017329
Loading maneuver chart data...
Computing Atmospheric mass density...

Documentation

Showing up to 5 results
|